sat.trackr.live / text

‹ back to catalog

STARLINK-30708

NORAD 57944 · 2023-148K

PAYLOAD ACTIVE UNKNOWN

§ Identity

Operator
Country
US
Launch date
2023-09-25
Launch site
AFWTR
Launch vehicle
Mass (kg)
RCS (m²)

Purposes: comms

External: N2YO · Heavens-Above · Gunter

§ Orbital elements

Epoch: 2026-09-20T12:26:47.631840Z

Period
93.85 min
Inclination
53.1601°
Eccentricity
0.0001091
Mean motion
15.34402657 rev/d
Perigee alt
461.9 km
Apogee alt
463.4 km
Semi-major
6,840.8 km
B*
-5.9306e-5
RAAN
195.6286°
Arg perigee
90.7396°
Mean anomaly
269.3731°
Rev number
16,830

§ Raw data

STARLINK-307081 57944U 23148K   26263.51860685 -.00002379  00000+0 -59306-4 0  99942 57944  53.1601 195.6286 0001091  90.7396 269.3731 15.34402657168305

JSON: /api/v1/satellites/57944 · /tle

For live sub-satellite position, see the globe view (requires WebGL).

§ Visibility from observer

Set your observer location to see the next 7 days of passes ≥ 10°. The values pass through the URL so the page stays shareable.

No JS? Fill the form by hand. The geolocation button needs JavaScript.